• Join FlightAware (Why Join?)
  • Login
  • US Flag 
05:02AM EDT


 

Airport Tracker/Info


-or-


 

Live Flight TrackerFlight Track Log ✈ DAL1283 ✈ 24-Apr-2013 ✈ KMSP - KIND

Flight Track Log - Related Links

Times and Time Zones

All times are in EDT time to prevent confusion due to time zone crossing. See the DAL1283 flight status page for this flight to view local times or setup timezone preferences in your user account.

Time Position Orientation Groundspeed Altitude Reporting Facility
EDT Latitude Longitude Course Direction KTS MPH feet Rate Location/Type
07:04PM 44.8936 -93.2481 139° Southeast 165 190 2,100  Level FAA TRACON SMA TRACON (SMA)
07:04PM 44.8956 -93.2694 277° West 176 203 2,600 2,100 Climbing FAA TRACON SMA TRACON (SMA)
07:04PM 44.8936 -93.2939 264° West 197 227 3,500 3,180 Climbing FAA TRACON SMA TRACON (SMA)
07:05PM 44.8842 -93.3214 244° Southwest 213 245 4,700 2,340 Climbing FAA TRACON SMA TRACON (SMA)
07:06PM 44.8461 -93.3442 203° Southwest 247 284 5,900 1,440 Climbing FAA TRACON SMA TRACON (SMA)
07:06PM 44.8208 -93.3567 199° South 251 289 6,200 1,020 Climbing FAA TRACON SMA TRACON (SMA)
07:06PM 44.8008 -93.3656 198° South 248 285 6,600 1,980 Climbing FAA TRACON SMA TRACON (SMA)
07:06PM 44.7803 -93.3744 197° South 250 288 7,500 3,420 Climbing FAA TRACON SMA TRACON (SMA)
07:07PM 44.5422 -92.7096 137° Southeast  Level Estimated
07:07PM 44.7522 -93.3697 173° South 263 303 8,900  Level FAA TRACON SMA TRACON (SMA)
07:07PM 44.7300 -93.3597 162° South 272 313 9,800 1,860 Climbing FAA TRACON SMA TRACON (SMA)
07:08PM 44.4569 -92.5825 120° Southeast  Level Estimated
07:08PM 44.7106 -93.3364 140° Southeast 294 338 10,200  Level FAA TRACON SMA TRACON (SMA)
07:08PM 44.6892 -93.2953 126° Southeast 333 383 10,800 1,980 Climbing FAA TRACON SMA TRACON (SMA)
07:08PM 44.6719 -93.2589 124° Southeast 353 406 11,500 2,220 Climbing FAA TRACON SMA TRACON (SMA)
07:08PM 44.6558 -93.2211 121° Southeast 363 418 12,300 2,760 Climbing FAA TRACON SMA TRACON (SMA)
07:09PM 44.3626 -92.4686 139° Southeast  Level FlightAware Approximate
07:09PM 44.6367 -93.1722 119° Southeast 372 428 13,400  Level FAA TRACON SMA TRACON (SMA)
07:09PM 44.6211 -93.1331 119° Southeast 374 430 14,200 2,100 Climbing FAA TRACON SMA TRACON (SMA)
07:09PM 44.6058 -93.0928 118° Southeast 376 433 14,800 2,100 Climbing FAA TRACON SMA TRACON (SMA)
07:10PM 44.5853 -93.0411 119° Southeast 391 450 15,600 2,400 Climbing FAA TRACON SMA TRACON (SMA)
07:10PM 44.5686 -93.0003 120° Southeast 394 453 16,400 2,400 Climbing FAA TRACON SMA TRACON (SMA)
07:10PM 44.5519 -92.9589 119° Southeast 394 453 17,200 2,340 Climbing FAA TRACON SMA TRACON (SMA)
07:11PM 44.5306 -92.9069 120° Southeast 398 458 18,000 2,040 Climbing FAA TRACON SMA TRACON (SMA)
07:11PM 44.5133 -92.8644 120° Southeast 403 464 18,600 2,100 Climbing FAA TRACON SMA TRACON (SMA)
07:12PM 44.4922 -92.8100 119° Southeast 411 473 19,400 2,100 Climbing FAA TRACON SMA TRACON (SMA)
07:12PM 44.4742 -92.7669 120° Southeast 414 476 20,000 1,620 Climbing FAA TRACON SMA TRACON (SMA)
07:12PM 44.4572 -92.7214 118° Southeast 423 487 20,500 1,860 Climbing FAA TRACON SMA TRACON (SMA)
07:13PM 44.4336 -92.6669 121° Southeast 427 491 21,300 1,800 Climbing FAA TRACON SMA TRACON (SMA)
07:13PM 44.4158 -92.6211 118° Southeast 432 497 21,700 1,020 Climbing FAA TRACON SMA TRACON (SMA)
07:13PM 44.3975 -92.5739 119° Southeast 442 509 22,000 900 Climbing FAA TRACON SMA TRACON (SMA)
07:13PM 44.3783 -92.5269 120° Southeast 451 519 22,300 1,140 Climbing FAA TRACON SMA TRACON (SMA)
07:14PM 44.3531 -92.4669 120° Southeast 463 533 22,800 1,440 Climbing FAA TRACON SMA TRACON (SMA)
07:14PM 44.3325 -92.4183 121° Southeast 468 539 23,300 1,500 Climbing FAA TRACON SMA TRACON (SMA)
07:15PM 44.3078 -92.3561 119° Southeast 475 547 23,800 1,380 Climbing FAA TRACON SMA TRACON (SMA)
07:15PM 44.2864 -92.3069 121° Southeast 479 551 24,200 1,380 Climbing FAA TRACON SMA TRACON (SMA)
07:15PM 44.2661 -92.2556 119° Southeast 485 558 24,700 1,740 Climbing FAA TRACON SMA TRACON (SMA)
07:16PM 44.2403 -92.1933 120° Southeast 486 559 25,400 1,500 Climbing FAA TRACON SMA TRACON (SMA)
07:17PM 44.1592 -92.0444 127° Southeast 484 557 27,000 1,320 Climbing Minneapolis Center
07:18PM 44.0714 -91.9069 132° Southeast 479 551 28,400 1,440 Climbing Minneapolis Center
07:19PM 43.9617 -91.7425 133° Southeast 484 557 30,000 1,200 Climbing Minneapolis Center
07:20PM 43.8664 -91.6014 133° Southeast 484 557 31,000 480 Climbing Minneapolis Center
07:21PM 43.7761 -91.4669 133° Southeast 481 554 31,000  Level Minneapolis Center
07:22PM 43.6850 -91.3319 133° Southeast 481 554 31,000  Level Minneapolis Center
07:23PM 43.5761 -91.1686 133° Southeast 482 555 31,000  Level Minneapolis Center
07:24PM 43.4664 -91.0083 133° Southeast 481 554 31,000  Level Minneapolis Center
07:25PM 43.3578 -90.8489 133° Southeast 479 551 31,000  Level Minneapolis Center
07:26PM 43.2669 -90.7178 134° Southeast 476 548 31,000  Level Minneapolis Center
07:27PM 43.1767 -90.5850 133° Southeast 480 552 31,000  Level Chicago Center
07:28PM 43.0825 -90.4536 134° Southeast 485 558 31,000  Level Chicago Center
07:29PM 42.9922 -90.3219 133° Southeast 479 551 31,000  Level Chicago Center
07:31PM 42.9006 -90.1889 133° Southeast 481 554 31,000  Level Chicago Center
07:32PM 42.8083 -90.0575 134° Southeast 482 555 31,000  Level Chicago Center
07:33PM 42.7011 -89.9081 134° Southeast 487 560 31,000  Level Chicago Center
07:34PM 42.6089 -89.7767 134° Southeast 483 556 31,000  Level Chicago Center
07:35PM 42.5003 -89.6239 134° Southeast 483 556 31,000  Level Chicago Center
07:36PM 42.4064 -89.4933 134° Southeast 484 557 31,000  Level Chicago Center
07:37PM 42.3131 -89.3628 134° Southeast 483 556 31,000  Level Chicago Center
07:38PM 42.2189 -89.2325 134° Southeast 484 557 31,000  Level Chicago Center
07:39PM 42.1239 -89.1036 135° Southeast 485 558 31,000  Level Chicago Center
07:40PM 42.0264 -88.9686 134° Southeast 484 557 31,000  Level Chicago Center
07:41PM 41.9317 -88.8392 135° Southeast 488 562 31,000  Level Chicago Center
07:42PM 41.8178 -88.6839 135° Southeast 489 563 31,000  Level Chicago Center
07:43PM 41.7233 -88.5569 135° Southeast 486 559 31,000  Level Chicago Center
07:44PM 41.6294 -88.4289 134° Southeast 485 558 31,000 -600 Level Chicago Center
07:45PM 41.5331 -88.3086 137° Southeast 480 552 29,800 -960 Descending Chicago Center
07:46PM 41.4033 -88.2019 148° Southeast 468 539 29,000 -420 Descending Chicago Center
07:47PM 41.2944 -88.1181 150° Southeast 471 542 29,000 -900 Level Chicago Center
07:48PM 41.1850 -88.0306 149° Southeast 468 539 27,200 -2,280 Descending Chicago Center
07:49PM 41.0747 -87.9436 149° Southeast 466 536 24,400 -1,560 Descending Chicago Center
07:50PM 40.9411 -87.8378 149° Southeast 471 542 24,000 -420 Descending Chicago Center
07:51PM 40.8300 -87.7475 148° Southeast 473 544 23,600 -780 Descending Chicago Center
07:52PM 40.7328 -87.6283 137° Southeast 477 549 22,500 -1,140 Descending Chicago Center
07:53PM 40.6422 -87.5044 134° Southeast 473 544 21,300 -1,380 Descending Chicago Center
07:54PM 40.5506 -87.3861 136° Southeast 466 536 19,700 -2,160 Descending Chicago Center
07:55PM 40.4464 -87.2458 134° Southeast 450 518 16,900 -2,280 Descending Chicago Center
07:56PM 40.3614 -87.1328 135° Southeast 428 493 15,000 -1,560 Descending Chicago Center
07:57PM 40.2778 -87.0239 135° Southeast 422 486 13,700 -960 Descending Chicago Center
07:58PM 40.1975 -86.9153 134° Southeast 414 476 13,000 -360 Descending Chicago Center
08:00PM 40.1219 -86.8147 134° Southeast 385 443 13,000 -360 Level Chicago Center
08:00PM 40.0644 -86.7433 136° Southeast 348 400 12,400 -960 Descending Indianapolis Center
08:01PM 39.9989 -86.6575 135° Southeast 335 386 11,200 -1,200 Descending Indianapolis Center
08:02PM 39.9428 -86.5439 123° Southeast 327 376 10,000 -1,380 Descending Indianapolis Center
08:03PM 39.9131 -86.4342 109° East 320 368 8,400 -1,560 Descending Indianapolis Center
08:05PM 39.8858 -86.3314 109° East 303 349 6,800 -1,800 Descending Indianapolis Center
08:05PM 39.9000 -86.2500 77° East 262 302 5,100 -1,560 Descending Indianapolis TRACON
08:06PM 39.8833 -86.1667 105° East 240 276 4,000 -1,140 Descending Indianapolis TRACON